[[{"header":{"parameterUnit":"m.s-1","parameterCategory":1,"la1":30.2991,"la2":30.254,"lo1":-89.0895,"lo2":-89.0444,"dy":0.0017,"dx":0.0017,"nx":28,"ny":28,"refTime":"2025-06-13T21:00:00:Z","depth":0,"parameterNumber":2,"parameterNumberName":"U-component_of_WINDS"},"data":[0,0,0,0,0,0,0,0,0,0,0,0,0,0,0,0,0,0,0,0,0,0,0,0,0,0,0,0,0,0,0,0,0,0,0,0,0,0,0,0,0,0,0,0,0,0,0,0,0,0,0,0,0,0,0,0,0,0,0.6671,0.6672,0,0.6732,0.6733,0.6734,0.6765,0.6765,0.6765,0.6765,0.6823,0.6825,0.6826,0,0,0,0,0,0,0,0,0,0,0,0,0,0.6577,0.6579,0.6671,0.6672,0.6673,0.6732,0.6733,0.6734,0.6765,0.6765,0.6765,0.6765,0.6823,0.6824,0.6826,0,0,0,0,0,0,0,0,0,0,0,0,0,0.6626,0.6579,0.6671,0.6695,0.6698,0.6732,0.6733,0.6734,0.6765,0.6765,0.6765,0.6765,0.6822,0.6824,0.6827,0.684,0,0,0.6833,0.6834,0,0,0,0,0,0,0,0,0.6623,0.6629,0.6691,0.6694,0.6697,0.6741,0.6721,0.6769,0.6765,0.6739,0.6765,0.6765,0.6796,0.68,0.6811,0.6842,0.6845,0.6834,0.6835,0.6836,0.6837,0,0,0,0,0,0,0,0.662,0.6627,0.6695,0.6692,0.6696,0.6702,0.6709,0.6731,0.6766,0.6742,0.6744,0.6751,0.6797,0.6809,0.6813,0.6846,0.6834,0.6836,0.6837,0.6838,0.689,0.689,0,0,0,0,0,0,0.6613,0.6624,0.6693,0.6697,0.666,0.6704,0.6711,0.6727,0.6766,0.6772,0.6751,0.6752,0.6805,0.681,0.6815,0.6833,0.6836,0.6838,0.6839,0.689,0.689,0.689,0,0,0,0,0,0,0.6611,0.6619,0.6691,0.6661,0.6671,0.6705,0.6722,0.6728,0.674,0.6773,0.6779,0.6757,0.6805,0.6812,0.6834,0.6835,0.6839,0.6841,0.689,0.689,0.689,0.6869,0,0,0,0,0,0,0.6608,0.6618,0.6624,0.6661,0.6672,0.671,0.6722,0.6729,0.6744,0.6747,0.678,0.6786,0.6806,0.683,0.6836,0.6839,0.6843,0.689,0.689,0.689,0.687,0.6868,0.6867,0,0,0,0,0,0.6604,0.6615,0.6624,0.6633,0.6681,0.671,0.6716,0.674,0.6744,0.675,0.6772,0.6785,0.6834,0.6832,0.6839,0.6842,0.689,0.689,0.689,0.687,0.6869,0.6867,0,0,0,0,0,0,0.6575,0.662,0.6631,0.6654,0.6678,0.6715,0.6723,0.6737,0.6759,0.676,0.6788,0.6795,0.6814,0.683,0.6827,0.6857,0.6864,0.6865,0.6846,0.6845,0.6843,0.6839,0.6845,0,0,0,0,0,0.6572,0.6593,0.663,0.6646,0.6658,0.6689,0.6702,0.6718,0.6744,0.6754,0.6777,0.6799,0.682,0.6833,0.6854,0.6872,0.688,0.6878,0.6877,0.6875,0.6876,0.6887,0.6886,0.6891,0.6891,0.6891,0,0,0.6564,0.6591,0.6602,0.6641,0.6662,0.6682,0.6697,0.6717,0.6732,0.6756,0.6779,0.6796,0.6824,0.6844,0.6853,0.6858,0.6877,0.6875,0.6874,0.6876,0.6887,0.6886,0.6886,0.6891,0.6891,0.6891,0,0,0.6561,0.6583,0.66,0.6621,0.6652,0.6672,0.6676,0.6711,0.6724,0.6748,0.6767,0.6784,0.6819,0.6838,0.6852,0.6856,0.6868,0.6862,0.6855,0.6865,0.6864,0.6864,0.6866,0.6866,0.6862,0.6862,0.6862,0,0.6547,0.6579,0.6606,0.6626,0.6642,0.6667,0.6683,0.6701,0.6737,0.6747,0.6751,0.6797,0.6817,0.6841,0.6842,0.6853,0.6858,0.6858,0.6863,0.6863,0.6863,0.6864,0.6865,0.6861,0.6861,0.6861,0.6862,0,0.656,0.6582,0.6591,0.6628,0.6645,0.6662,0.6691,0.6705,0.672,0.6739,0.6762,0.6787,0.6814,0.6821,0.6835,0.6847,0.6849,0.6858,0.6865,0.6861,0.6863,0.6864,0.686,0.686,0.686,0.6861,0,0,0.654,0.6592,0.6594,0.6611,0.6648,0.6665,0.6683,0.6711,0.6722,0.6746,0.6761,0.6791,0.6799,0.6815,0.6831,0.684,0.6842,0.6848,0.6849,0.6846,0.6857,0.685,0.685,0.685,0.6851,0.6851,0.6855,0,0.6541,0.6578,0.6602,0.6628,0.6648,0.6672,0.6688,0.6712,0.673,0.6749,0.6769,0.6789,0.6799,0.6809,0.6819,0.6839,0.6844,0.6839,0.6864,0.6865,0.6857,0.6852,0.6844,0.6847,0.6855,0.6856,0.6856,0,0.6548,0.6573,0.6601,0.6637,0.6646,0.666,0.6687,0.6705,0.6732,0.6745,0.6763,0.678,0.6799,0.6805,0.6831,0.6827,0.6839,0.6851,0.6851,0.6854,0.686,0.6854,0.6848,0.6848,0.6857,0.6857,0.6857,0,0.653,0.6571,0.6593,0.6607,0.6648,0.6657,0.6675,0.6702,0.6717,0.674,0.675,0.6775,0.6788,0.6806,0.6829,0.6831,0.6853,0.686,0.6863,0.6862,0.6866,0.6866,0.6862,0.6874,0.6874,0.6874,0.6874,0,0.6529,0.6545,0.6586,0.6599,0.6618,0.6646,0.6663,0.6682,0.6706,0.6723,0.6744,0.6759,0.6789,0.6807,0.6825,0.6844,0.6849,0.686,0.6864,0.6858,0.6857,0.6866,0.6866,0.6874,0.6874,0.6874,0.6874,0,0.6512,0.654,0.6566,0.6604,0.6613,0.6625,0.6657,0.667,0.6691,0.6711,0.6718,0.6749,0.6771,0.6796,0.6826,0.6838,0.6856,0.6863,0.6848,0.685,0.6852,0.6851,0.6854,0.6855,0.6866,0.6866,0.6866,0,0.651,0.6523,0.6563,0.6577,0.6594,0.6615,0.6631,0.6659,0.6675,0.6707,0.6716,0.6741,0.6762,0.6796,0.6821,0.6844,0.6851,0.685,0.6854,0.6848,0.6851,0.685,0.6851,0.6849,0.6848,0.6848,0.6848,0,0.6502,0.6516,0.6539,0.6567,0.6586,0.6609,0.6632,0.6642,0.6674,0.669,0.6714,0.6731,0.6763,0.6786,0.6813,0.6829,0.6844,0.6847,0.6849,0.6842,0.6833,0.6838,0.6844,0.6846,0.6847,0.6847,0.6847,0.6847,0.6493,0.6506,0.6536,0.6561,0.6582,0.6604,0.6619,0.6641,0.6662,0.6692,0.6706,0.673,0.6757,0.6794,0.681,0.6828,0.6833,0.6835,0.6836,0.6836,0.6835,0.683,0.6833,0.6833,0.6833,0.6833,0.6833,0,0.6486,0.6507,0.653,0.6563,0.6583,0.6597,0.6623,0.6638,0.666,0.6684,0.6705,0.6732,0.6756,0.6782,0.6807,0.6817,0.6824,0.6822,0.6821,0.6825,0.6829,0.6825,0.6816,0.6816,0.6816,0.6816,0.6816,0.6816,0.6485,0.6508,0.6525,0.6559,0.6579,0.6604,0.6618,0.6638,0.6658,0.6688,0.6709,0.6726,0.6751,0.6778,0.68,0.6807,0.6815,0.6811,0.682,0.6823,0.6825,0.6826,0.6822,0.6813,0.6813,0.6814,0.6814,0.6814]},{"header":{"parameterUnit":"m.s-1","parameterCategory":1,"la1":30.2991,"la2":30.254,"lo1":-89.0895,"lo2":-89.0444,"dy":0.0017,"dx":0.0017,"nx":28,"ny":28,"refTime":"2025-06-13T21:00:00:Z","depth":0,"parameterNumber":3,"parameterNumberName":"V-component_of_WINDS"},"data":[0,0,0,0,0,0,0,0,0,0,0,0,0,0,0,0,0,0,0,0,0,0,0,0,0,0,0,0,0,0,0,0,0,0,0,0,0,0,0,0,0,0,0,0,0,0,0,0,0,0,0,0,0,0,0,0,0,0,4.1469,4.1468,0,4.1408,4.1407,4.1407,4.1368,4.1367,4.1367,4.1367,4.1302,4.13,4.1299,0,0,0,0,0,0,0,0,0,0,0,0,0,4.1549,4.1547,4.1469,4.1468,4.1467,4.1408,4.1407,4.1406,4.1368,4.1367,4.1367,4.1367,4.1302,4.1301,4.1299,0,0,0,0,0,0,0,0,0,0,0,0,0,4.1503,4.1547,4.1469,4.1441,4.1438,4.1408,4.1407,4.1406,4.1368,4.1367,4.1367,4.1367,4.1303,4.1301,4.1299,4.1291,0,0,4.1292,4.1291,0,0,0,0,0,0,0,0,4.1506,4.1501,4.1446,4.1443,4.1439,4.1395,4.1411,4.1368,4.1368,4.1394,4.1367,4.1366,4.1333,4.1328,4.1317,4.1288,4.1286,4.1291,4.129,4.1289,4.1288,0,0,0,0,0,0,0,4.1509,4.1503,4.1445,4.1445,4.1441,4.143,4.1424,4.1403,4.1366,4.1392,4.1389,4.1382,4.1331,4.132,4.1316,4.1285,4.1291,4.1289,4.1288,4.1287,4.1246,4.1246,0,0,0,0,0,0,4.1517,4.1506,4.1447,4.1443,4.1473,4.1429,4.1422,4.141,4.1366,4.1359,4.1383,4.1381,4.1324,4.1318,4.1313,4.1302,4.1289,4.1287,4.1286,4.1246,4.1246,4.1246,0,0,0,0,0,0,4.1519,4.1512,4.1449,4.1474,4.1465,4.1428,4.1415,4.1409,4.1397,4.1359,4.1352,4.1378,4.1323,4.1316,4.1297,4.1299,4.1286,4.1284,4.1245,4.1246,4.1246,4.1279,0,0,0,0,0,0,4.1522,4.1513,4.1511,4.1474,4.1464,4.1435,4.1415,4.1408,4.1394,4.1391,4.1353,4.1347,4.1323,4.1301,4.1295,4.1296,4.1282,4.1245,4.1245,4.1246,4.1278,4.1281,4.1283,0,0,0,0,0,4.1525,4.1522,4.1511,4.1504,4.146,4.1435,4.1429,4.1402,4.1394,4.1391,4.1367,4.1348,4.13,4.1299,4.1292,4.1292,4.1245,4.1245,4.1246,4.1277,4.128,4.1283,0,0,0,0,0,0,4.1559,4.1517,4.1504,4.149,4.1467,4.1429,4.1424,4.1407,4.1385,4.1383,4.1349,4.1341,4.1325,4.1307,4.1307,4.1283,4.127,4.1269,4.1296,4.1299,4.1301,4.1306,4.128,0,0,0,0,0,4.1566,4.155,4.1513,4.1504,4.1493,4.1461,4.1449,4.143,4.1405,4.1394,4.1368,4.1344,4.1323,4.131,4.1288,4.1275,4.1266,4.1271,4.1274,4.1277,4.1276,4.1267,4.1269,4.1248,4.1248,4.1248,0,0,4.1578,4.1553,4.1545,4.1511,4.149,4.1474,4.1453,4.1437,4.1424,4.1391,4.1372,4.1352,4.1322,4.1306,4.1297,4.129,4.128,4.1277,4.128,4.1278,4.1268,4.127,4.1272,4.1249,4.1249,4.1248,0,0,4.1592,4.1572,4.1562,4.1542,4.1513,4.1491,4.1489,4.1453,4.1439,4.1419,4.1395,4.1378,4.1343,4.1323,4.1308,4.1314,4.1296,4.1308,4.1322,4.1314,4.1316,4.1317,4.1319,4.132,4.1308,4.1308,4.1308,0,4.1611,4.1587,4.1559,4.1544,4.153,4.15,4.149,4.1472,4.1436,4.1426,4.1418,4.1374,4.1351,4.133,4.1331,4.132,4.1316,4.1312,4.1318,4.1319,4.132,4.1321,4.1322,4.131,4.1309,4.1309,4.1309,0,4.1611,4.1595,4.159,4.1558,4.1542,4.153,4.1499,4.1487,4.1469,4.1448,4.1428,4.14,4.1372,4.1366,4.1348,4.1341,4.1338,4.1324,4.1311,4.1324,4.1325,4.1325,4.1312,4.1311,4.1311,4.1311,0,0,4.1646,4.1598,4.1597,4.1582,4.1547,4.1533,4.1518,4.1492,4.1482,4.1458,4.1445,4.1416,4.1404,4.1387,4.1366,4.1359,4.1366,4.1346,4.1345,4.1351,4.1356,4.1367,4.1368,4.1353,4.1353,4.1353,4.1359,0,4.1655,4.1629,4.1604,4.1586,4.157,4.1542,4.1529,4.1506,4.1486,4.1468,4.1445,4.1425,4.141,4.14,4.1391,4.1367,4.1366,4.1366,4.134,4.1339,4.1349,4.1368,4.1379,4.1386,4.1359,4.1359,4.1359,0,4.1663,4.1641,4.1623,4.1589,4.1581,4.157,4.1544,4.1528,4.15,4.1486,4.1467,4.1446,4.1428,4.1417,4.1392,4.1392,4.138,4.1366,4.1366,4.1362,4.135,4.1366,4.1387,4.1388,4.1359,4.1359,4.1359,0,4.169,4.1656,4.1641,4.1628,4.1588,4.1582,4.1564,4.1536,4.1522,4.1499,4.149,4.1464,4.1451,4.1431,4.1403,4.1397,4.1381,4.1367,4.1368,4.1369,4.1366,4.1367,4.1386,4.1358,4.1358,4.1358,4.1358,0,4.1703,4.1693,4.1652,4.1643,4.163,4.16,4.1588,4.1568,4.1544,4.1529,4.1503,4.1489,4.1453,4.1435,4.1413,4.1396,4.139,4.1377,4.1371,4.138,4.1381,4.1371,4.137,4.1359,4.1358,4.1358,4.1358,0,4.1732,4.1704,4.1686,4.1649,4.164,4.1632,4.1601,4.159,4.1568,4.155,4.1544,4.151,4.1487,4.1457,4.1425,4.141,4.1396,4.1387,4.1406,4.1402,4.1405,4.1405,4.1419,4.1419,4.1391,4.1391,4.1392,0,4.1742,4.1733,4.1697,4.1685,4.1669,4.1652,4.1637,4.1607,4.1593,4.1561,4.1554,4.1529,4.1508,4.1474,4.1445,4.142,4.1411,4.1417,4.1407,4.1415,4.1411,4.1412,4.1411,4.142,4.142,4.1421,4.1421,0,4.1763,4.175,4.1731,4.1707,4.1691,4.167,4.1649,4.1641,4.1605,4.1591,4.1568,4.1552,4.152,4.1496,4.1467,4.1448,4.1429,4.1424,4.1423,4.1432,4.1443,4.1437,4.1413,4.1424,4.1424,4.1424,4.1424,4.1423,4.1782,4.1774,4.1747,4.1726,4.1707,4.1687,4.1675,4.1652,4.1633,4.1605,4.1588,4.1565,4.1537,4.1497,4.1479,4.1461,4.1453,4.1452,4.1451,4.1451,4.1454,4.1446,4.1455,4.1455,4.1455,4.1455,4.1455,0,4.1802,4.1783,4.1765,4.1736,4.1719,4.1703,4.1678,4.1665,4.1646,4.1622,4.1602,4.1576,4.1552,4.1522,4.1496,4.1487,4.1478,4.1482,4.1482,4.1478,4.1462,4.1466,4.149,4.149,4.149,4.149,4.149,4.149,4.1811,4.1795,4.1779,4.1753,4.1733,4.1712,4.1699,4.1681,4.1661,4.1633,4.1614,4.1595,4.1568,4.154,4.1517,4.1509,4.1501,4.1507,4.1496,4.1482,4.1479,4.1476,4.1479,4.1506,4.1506,4.1513,4.1514,4.1514]}]]